Regional Weather Roundup
Issued by NWS

Home | Current Version | Previous Version | Text Only | Print | Product List | Glossary On
Versions: 1 2 3 4 5 6 7 8 9 10 11 12 13 14 15 16 17 18 19 20 21 22 23 24 25 26 27 28 29 30 31 32 33 34 35 36 37 38 39 40 41 42 43 44 45 46 47 48 49 50
000
ASUS46 KSEW 210110
RWRWA

WASHINGTON REGIONAL WEATHER ROUNDUP
NATIONAL WEATHER SERVICE SEATTLE WA
500 PM PST MON FEB 20 2017

NOTE:"FAIR" INDICATES FEW OR NO CLOUDS BELOW 12,000 FEET WITH NO
SIGNIFICANT WEATHER AND/OR OBSTRUCTIONS TO VISIBILITY.

WAZ507-509-555>559-210200-
SEATTLE, TACOMA, EVERETT, AND VICINITY

CITY           SKY/WX    TMP DP  RH WIND       PRES   REMARKS
EVERETT        LGT RAIN  43  42  97 SE9       29.70R FOG
BOEING FIELD   CLOUDY    46  44  93 S8        29.71R
RENTON         CLOUDY    46  44  93 SE3       29.72R
SEATAC AIRPORT CLOUDY    45  43  93 S6        29.71R
JBLM-MCCHORD   CLOUDY    45  45 100 SE3       29.71R
PUYALLUP         N/A     45  45 100 CALM      29.71R
BREMERTON      CLOUDY    45  43  93 S5        29.73R
JBLM-FT LEWIS  DRIZZLE   46  46 100 E3        29.70R
TACOMA NARROWS MOCLDY    45  43  93 S6        29.71R
$$

WAZ001-503-506-510-514-515-210200-
NORTH INTERIOR

CITY           SKY/WX    TMP DP  RH WIND       PRES   REMARKS
BELLINGHAM     LGT RAIN  45  43  93 CALM      29.68R
FRIDAY HARBOR  LGT RAIN  47  41  80 CALM      29.70R
EASTSOUND      LGT RAIN  45  41  87 CALM      29.67R
PORT ANGELES   LGT RAIN  44  43  96 CALM      29.69R
EDIZ HOOK      LGT RAIN  45  42  89 CALM      29.70R
PORT TOWNSEND  LGT RAIN  45  45 100 CALM      29.71R
NAS WHIDBEY    CLOUDY    48  40  73 CALM      29.73R
ARLINGTON      CLOUDY    45  37  76 S8        29.72R
BURLINGTON     MOCLDY    45  41  87 NW3       29.70R
$$

WAZ020-022-039-040-504-511-512-210200-
SOUTHWEST INTERIOR

CITY           SKY/WX    TMP DP  RH WIND       PRES   REMARKS
SHELTON        LGT RAIN  47  43  86 CALM      29.68R
OLYMPIA        LGT RAIN  46  45  96 S6        29.70S
CHEHALIS       LGT RAIN  46  46 100 S7        29.71R
KELSO          CLOUDY    46  44  93 S5        29.72R
VANCOUVER      CLOUDY    48  46  93 SE6       29.71S
SCAPPOOSE, OR  CLOUDY    47  46  97 NW5       29.71S
PORTLAND, OR   LGT RAIN  48  44  86 SE6       29.72S
$$

WAZ021-516-517-210200-
WASHINGTON COAST

CITY           SKY/WX    TMP DP  RH WIND       PRES   REMARKS
FORKS          CLOUDY    45  39  79 CALM      29.69R
HOQUIAM        LGT RAIN  46  45  96 SE3       29.69R
ASTORIA, OR    LGT RAIN  47  44  90 S6        29.69R
$$

WAZ019-023-024-040-567>569-210200-
CASCADE MOUNTAINS AND COLUMBIA GORGE

CITY           SKY/WX    TMP DP  RH WIND       PRES   REMARKS
STAMPEDE PASS  NOT AVBL
TROUTDALE, OR  CLOUDY    48  45  89 NE3       29.72S
THE DALLES, OR MOCLDY    50  40  68 NW16G22   29.69R
$$

WAZ026-027-041>044-520-521-210200-
EAST SLOPES

CITY           SKY/WX    TMP DP  RH WIND       PRES   REMARKS
OMAK           CLOUDY    37  33  85 CALM      29.60R
WENATCHEE      CLOUDY    34  34 100 CALM      29.63R
ELLENSBURG     CLEAR     40  33  76 W6        29.62R
YAKIMA         PTCLDY    43  37  79 CALM      29.66R
SUNNYSIDE ARPT PTCLDY    43  34  72 CALM      29.68R
$$

WAZ028-034-035-210200-
COLUMBIA BASIN

CITY           SKY/WX    TMP DP  RH WIND       PRES   REMARKS
EPHRATA        PTCLDY    39  31  72 NW6       29.63R
MOSES LAKE     PTCLDY    37  33  85 SW6       29.65R
PASCO          PTCLDY    52  34  50 W16       29.70R
HERMISTON, OR  MOCLDY    49  38  65 SW5       29.70R
$$

WAZ036>038-210200-
NORTHEAST WASHINGTON

CITY           SKY/WX    TMP DP  RH WIND       PRES   REMARKS
SPOKANE GEIGER CLOUDY    37  34  89 SW22G33   29.58R
SPOKANE FELTS  CLOUDY    41  36  82 SW22G33   29.61R
FAIRCHILD AFB  DRIZZLE   36  36 100 SW21G29   29.58R
COEURDALENE,ID CLOUDY    41  35  79 SW12G24   29.60R
DEER PARK      LGT RAIN  39  35  86 SW21G31   29.57R
$$

WAZ029>033-210200-
SOUTHEAST WASHINGTON

CITY           SKY/WX    TMP DP  RH WIND       PRES   REMARKS
PULLMAN        PTCLDY    44  36  73 SW23G33   29.67R
LEWISTON, ID   MOCLDY    53  42  66 CALM      29.67R
WALLA WALLA    CLOUDY    51  40  65 S8        29.72R
PENDLETON, OR  MOCLDY    45  38  76 W13       29.69R
$$



USA.gov is the U.S. government's official web portal to all federal, state and local government web resources and services.